資訊處專案發展組定於 107年8月16日(四)上午10時至下午4時,進行單一登入(SSO)系統之防火牆設備升級,以提升系統服務、安全水準及穩定度。施工期間系統仍正常運作,惟線路調整切換時,可能發生短暫中斷服務情形;若遇到服務中斷,請稍候片刻,再重新登入及使用相關資訊系統。不便之處,尚祈見諒。

107學年度「專任教師研究獎勵」自107年8月1日起至9月30日止受理申請

教師請點選 線上申請

關鍵字: 進階查詢

教師資料查詢

[第一頁][上頁]...119611196211963119641196511966119671196811969...[次頁][最末頁]目前在第 11961 頁 / 共有 362,014 筆查詢結果
序號 更新時間 教師動態
358801 2001/02/01 建築系 吳光庭 副教授 論文指導 發佈 建築一碩士班 徐睿紳 , [89-2]
358802 2001/02/01 統計系 博仕 副教授 論文指導 發佈 統計一碩士班 龍永昭 , [89-2]
358803 2001/02/01 管科系 李培齊 教授 遠距課程紀錄 發佈 管科二:行銷管理 TMMXB2M0142 0A , [89-2]
358804 2001/02/01 日文系 劉長輝 副教授 遠距課程紀錄 發佈 應日三:日本文化思想史概論 TTJXT3A1645 2A , [89-2]
358805 2001/02/01 日文系 劉長輝 副教授 遠距課程紀錄 發佈 日文四:日本文化思想史概論 TFJXB4A1645 2P , [89-2]
358806 2001/02/01 外交與國際系 柯大衛 副教授 外語授課紀錄 發佈 共同科-商:應用英語(二) TGBXB0B0628 0A , [89-2]
358807 2001/02/01 法文系 蔡淑玲 教授 教學計畫表 發佈 中等學程二:法文科教材教法與實習 TDQBB2A1675 0A , [89-2]
358808 2001/02/01 法文系 蔡淑玲 教授 教學計畫表 發佈 法文四:法語教學理論與實務 TFFXB4A1530 2P , [89-2]
358809 2001/02/01 法文系 蔡淑玲 教授 教學計畫表 發佈 法文四:法國文學史(二) TFFXB4A0423 2B , [89-2]
358810 2001/02/01 法文系 蔡淑玲 教授 教學計畫表 發佈 法文一:法語會話(一) TFFXB1A0439 2C , [89-2]
358811 2001/02/01 財務系 黃莉雯 講師 教學計畫表 發佈 財務在職班三:辦公室軟體及網頁應用 TTBXK3B0739 0A , [89-2]
358812 2001/02/01 法文系 蔡淑玲 教授 教學計畫表 發佈 西研一博士班:文學理論(二) TFWXD1A2133A0A , [89-2]
358813 2001/02/01 財務系 蔡劼峰 講師 教學計畫表 發佈 財務在職班三:財務數量方法 TTBXK3B0736 0A , [89-2]
358814 2001/02/01 財務系 樊國綱 助理教授級專業技術人 教學計畫表 發佈 財務在職班三:投資學 TTBXK3B0071 0A , [89-2]
358815 2000/12/22 歷史系 黃繁光 教授 學位論文 發佈 宋代民戶的職役負擔 , [68-1]
358816 2000/12/21 日研所 張瑞雄 副教授 學位論文 發佈 產業社會勞使關係展開一主日本台灣比較研究 , [77-2]
358817 2000/11/22 境輔組 李美蘭 專員 輔導社團 發佈 康輔社 社團指導教師 , [97-1]
358818 2000/11/15 大陸所 徐佐銘 副教授 其他 發佈 評《生命的價值:生物多樣性與人類社會關係》(書評) , [87-2]
358819 2000/11/15 大陸所 徐佐銘 副教授 其他 發佈 評《情緒療癒:21世紀的醫療挑戰》(書評) , [87-1]
358820 2000/11/08 物理系 周子聰 教授 學位論文 發佈 自避路徑隨機行走﹐旋轉的鍵動物和擴展的比率法 , [73-2]
358821 2000/11/08 物理系 周子聰 教授 學位論文 發佈 Kinetics of vacancy annealing in monolayers and instabilities in stressed materials , [84-2]
358822 2000/11/06 機電系 王銀添 教授 學位論文 發佈 Analysis and simulation of mechanical systems with multiple frictional contacts , [80-2]
358823 2000/10/27 日研所 張瑞雄 副教授 學位論文 發佈 日本企業社會勞使關係研究-日本有效性限界 , [89-1]
358824 2000/10/27 拉美所 陳小雀 教授 學位論文 發佈 La dictadura y la explotación: un estudio sobre la trilogía bananera de Miguel Ángel Asturias , [86-2]
358825 2000/10/25 拉美所 陳小雀 教授 學位論文 發佈 論艾斯德拉達之獨裁政權(一八九八 - 一九二○):以《總統先生》一書為歷史輔證 , [81-2]
358826 2000/10/23 水環系 許中杰 教授 學位論文 發佈 A sediment-budget analysis for upper Mississippi River between Guttenberg, Iowa and Saverton, Missouri , [70-1]
358827 2000/10/23 運管系 胡守任 助理教授 學位論文 發佈 混合車流路段車隊擴散模式之研究 , [79-2]
358828 2000/10/23 國貿系 鄒孟文 教授 學位論文 發佈 台灣製造貿易型態結構性轉變之檢定 , [78-2]
358829 2000/10/20 中文系 陳廖安 副教授 學位論文 發佈 春秋曆學研究 , [89-1]
358830 2000/10/20 覺生紀念圖書館 鄭麗敏 專門委員 學位論文 發佈 近20年臺灣地區圖書館學與資訊科學期刊論文引用參考文獻特性分析 , [82-2]
[第一頁][上頁]...119611196211963119641196511966119671196811969...[次頁][最末頁]目前在第 11961 頁 / 共有 362,014 筆查詢結果